NOTL Lakeshore

*Note: All times are displayed in the local standard time of the station location.
**Rain - Equipment is designed to accurately record liquid precipitation; under conditions when precipitation is not in liquid form, the data displayed may not properly reflect rainfall values.

Date Max Temp
(°C)
Min Temp
(°C)
Avg Temp
(°C)
Rain (mm) Avg RH (%)
Sat, Feb 17, 2018 -0.8 -6.3 -2.8 0.0 69.3
Fri, Feb 16, 2018 4.3 -5.1 0.3 0.0 76.8
Thu, Feb 15, 2018 9.4 2.8 6.3 0.2 95.1
Wed, Feb 14, 2018 5.5 -5.4 2.5 0.8 73.7
Tue, Feb 13, 2018 -0.4 -12.9 -6.4 0.0 71.1
Mon, Feb 12, 2018 -0.8 -6.1 -3.4 0.0 66.2
Sun, Feb 11, 2018 0.5 -3.8 -1.6 0.0 90.6
DateTime Avg Temp (°C) Rain (mm) RH (%)
Sun, Feb 18, 2018 04:00 -1.8 0.0 83.0
Sun, Feb 18, 2018 03:00 -1.2 0.0 79.8
Sun, Feb 18, 2018 02:00 -1.2 0.0 82.3
Sun, Feb 18, 2018 01:00 -1.4 0.0 84.3
Sun, Feb 18, 2018 00:00 -1.3 0.0 80.5
Sat, Feb 17, 2018 23:00 -1.3 0.0 73.3
Sat, Feb 17, 2018 22:00 -1.4 0.0 69.0
Sat, Feb 17, 2018 21:00 -1.5 0.0 68.0
Sat, Feb 17, 2018 20:00 -1.5 0.0 62.5
Sat, Feb 17, 2018 19:00 -1.5 0.0 60.8
Sat, Feb 17, 2018 18:00 -1.2 0.0 57.0
Sat, Feb 17, 2018 17:00 -1.1 0.0 59.3
Sat, Feb 17, 2018 16:00 -1.0 0.0 57.5
Sat, Feb 17, 2018 15:00 -0.9 0.0 58.3
Sat, Feb 17, 2018 14:00 -1.0 0.0 59.5
Sat, Feb 17, 2018 13:00 -0.9 0.0 58.8
Sat, Feb 17, 2018 12:00 -1.1 0.0 60.3
Sat, Feb 17, 2018 11:00 -1.6 0.0 62.5
Sat, Feb 17, 2018 10:00 -2.5 0.0 67.0
Sat, Feb 17, 2018 09:00 -3.9 0.0 72.5
Sat, Feb 17, 2018 08:00 -5.2 0.0 77.0
Sat, Feb 17, 2018 07:00 -5.5 0.0 78.8
Sat, Feb 17, 2018 06:00 -5.4 0.0 79.0
Sat, Feb 17, 2018 05:00 -5.3 0.0 80.3
Sat, Feb 17, 2018 04:00 -5.4 0.0 80.0
Sat, Feb 17, 2018 03:00 -5.9 0.0 79.8
Sat, Feb 17, 2018 02:00 -6.2 0.0 82.0
Sat, Feb 17, 2018 01:00 -5.6 0.0 79.3
Sat, Feb 17, 2018 00:00 -5.1 0.0 73.0
Fri, Feb 16, 2018 23:00 -4.1 0.0 66.8
Fri, Feb 16, 2018 22:00 -3.5 0.0 62.5
Fri, Feb 16, 2018 21:00 -3.3 0.0 61.3
Fri, Feb 16, 2018 20:00 -3.1 0.0 60.0
Fri, Feb 16, 2018 19:00 -2.7 0.0 57.3
Fri, Feb 16, 2018 18:00 -2.0 0.0 57.3
Fri, Feb 16, 2018 17:00 -0.4 0.0 57.5
Fri, Feb 16, 2018 16:00 0.5 0.0 60.0
Fri, Feb 16, 2018 15:00 1.6 0.0 58.3
Fri, Feb 16, 2018 14:00 1.9 0.0 61.3
Fri, Feb 16, 2018 13:00 1.8 0.0 67.3
Fri, Feb 16, 2018 12:00 1.8 0.0 78.3
Fri, Feb 16, 2018 11:00 1.0 0.0 90.3
Fri, Feb 16, 2018 10:00 1.5 0.0 86.5
Fri, Feb 16, 2018 09:00 1.4 0.0 88.0
Fri, Feb 16, 2018 08:00 1.5 0.0 90.3
Fri, Feb 16, 2018 07:00 2.0 0.0 92.0
Fri, Feb 16, 2018 06:00 2.2 0.0 89.5
Fri, Feb 16, 2018 05:00 2.3 0.0 89.0


asterix Register now to access more data! asterix